GFSNW_850_thetae_336.txt.gz
Theta_e
311 310 310 310 311 312 318 324 327 326 323 321 321 324 325 325 328 329 329 329 330 331 332 333 333 333 335 334 334 333 333 332 333 333 334 334 334 334 334 337 337 335 334 336
311 310 309 309 310 311 313 326 326 325 321 321 322 324 324 325 327 328 329 328 328 329 329 331 332 332 332 333 334 334 335 334 332 332 333 333 335 335 334 334 334 337 339 336
311 311 309 309 310 310 314 326 330 326 323 321 323 326 326 326 326 326 327 327 327 328 328 329 330 331 333 332 332 332 333 334 335 336 335 335 337 337 335 337 335 334 333 335
311 311 309 309 310 313 318 325 330 331 329 325 323 324 327 326 326 326 325 327 326 327 329 329 329 329 330 330 331 331 332 334 335 334 334 335 335 337 337 338 338 340 339 341
311 311 310 309 309 318 323 324 327 326 329 328 329 324 326 326 328 327 328 332 329 330 331 331 330 330 330 329 330 330 332 337 335 335 335 335 336 336 335 336 337 338 338 339
311 311 310 309 309 311 323 323 322 324 325 328 328 328 328 328 329 329 330 330 333 333 334 334 333 333 332 331 331 333 334 336 338 339 337 336 338 336 335 336 337 338 341 342
311 311 309 309 308 308 313 320 319 324 327 326 328 329 329 329 329 331 330 330 331 331 331 332 331 330 330 330 331 331 333 339 338 337 337 339 336 335 336 339 338 338 340 339
311 311 309 309 308 308 311 318 318 322 327 326 325 326 329 330 329 329 329 331 330 329 329 330 331 333 334 334 332 331 330 331 334 337 335 335 334 335 337 337 338 338 339 337
311 311 309 308 308 308 309 318 316 317 322 326 323 324 323 325 326 327 326 325 327 328 329 329 333 334 335 336 336 334 332 335 334 334 334 336 336 336 335 335 337 342 341 342
310 310 309 308 308 308 309 315 318 317 319 321 321 323 325 324 323 323 324 326 327 326 327 329 331 331 332 333 334 334 335 338 336 336 337 335 336 336 335 338 344 341 339 338
309 309 308 308 308 308 308 315 318 316 317 318 319 319 319 321 321 323 324 324 324 323 324 327 328 329 330 332 333 334 336 338 336 338 339 338 334 335 342 339 337 340 344 344
308 309 308 308 308 308 308 316 317 318 317 318 319 319 319 319 319 322 323 322 324 327 330 332 332 331 332 334 333 333 333 336 338 338 338 336 335 335 336 334 333 334 336 339
307 308 308 308 308 308 308 309 316 319 321 323 325 325 325 322 319 318 319 320 324 325 327 326 327 327 328 329 329 331 331 334 335 336 334 336 334 332 331 330 330 330 333 333
306 307 307 308 308 308 308 310 314 318 321 324 326 323 322 323 322 320 318 319 324 323 322 324 325 326 326 326 327 328 327 328 329 331 333 332 333 330 328 327 328 330 332 333
306 307 307 308 308 308 309 312 313 318 320 325 323 323 321 323 322 323 323 322 322 322 324 326 327 327 328 328 328 326 326 329 329 330 329 329 328 328 325 328 331 332 331 334
308 308 309 309 308 308 314 322 321 320 321 321 324 323 322 322 323 324 324 323 323 324 325 326 326 327 326 327 326 325 326 328 328 328 327 326 326 326 326 326 327 329 332 338
309 309 309 308 308 311 316 322 323 319 320 322 325 324 321 323 324 324 323 324 324 324 325 325 325 326 325 326 327 326 329 330 329 328 326 326 327 326 325 326 327 329 332 338
310 309 308 308 312 316 317 316 313 315 320 322 324 325 326 325 324 325 325 326 325 324 325 325 325 325 326 326 326 329 330 329 328 326 326 326 325 326 326 328 327 328 330 337
309 308 309 314 316 321 322 322 318 316 321 325 324 325 330 327 326 327 327 326 327 326 327 326 326 326 327 330 329 330 328 328 327 326 326 326 326 326 327 327 328 328 329 332
315 314 319 323 322 319 318 319 320 322 322 320 321 322 326 324 325 325 324 325 326 326 326 326 327 328 327 328 327 327 326 326 326 326 325 325 326 326 328 328 328 329 332 334
317 317 318 317 316 319 321 322 324 325 325 324 323 321 324 326 326 329 326 327 328 327 327 328 326 328 329 328 327 325 324 324 324 324 324 324 325 326 327 328 330 331 333 333
314 314 313 313 316 320 322 323 324 326 327 326 325 325 325 327 326 327 326 326 326 327 328 329 327 332 328 327 326 325 324 324 323 323 323 324 325 325 326 328 330 331 332 332
316 316 320 321 320 321 323 324 327 327 325 326 325 328 324 325 324 326 327 327 327 326 328 326 333 330 328 327 325 324 323 322 322 321 322 324 324 325 325 327 329 330 330 329
318 319 320 324 323 323 323 324 326 324 325 324 324 325 324 326 327 326 327 327 328 327 327 329 332 329 328 325 324 323 322 321 321 321 322 323 323 324 324 326 328 329 328 328
317 315 320 323 322 322 322 322 323 322 323 323 324 324 323 327 327 328 328 327 328 325 328 330 328 328 328 325 324 322 322 322 322 322 322 322 323 323 324 325 326 328 326 326
314 317 320 320 321 321 321 321 321 320 321 323 323 325 325 325 327 326 326 324 325 328 327 324 327 328 327 324 323 322 322 323 322 323 324 324 324 324 324 324 323 324 327 325
316 318 318 319 319 320 321 321 320 321 322 327 324 324 324 323 325 325 324 325 326 325 323 326 327 327 326 324 323 323 322 322 323 324 324 324 323 323 323 322 320 322 324 324

GFSNW_850_thetae_339.txt.gz
Theta_e
311 311 310 309 311 312 314 315 328 326 322 321 321 320 322 323 323 324 327 329 328 328 329 330 330 331 332 331 332 333 330 327 326 328 330 331 329 328 329 328 331 329 329 330
311 311 311 309 309 310 311 316 326 327 323 324 321 321 321 322 323 324 325 328 329 327 326 327 330 330 331 332 332 333 331 330 330 331 328 329 332 334 333 331 327 328 330 333
311 311 310 309 309 309 312 320 331 327 325 324 323 321 323 325 324 324 325 326 325 325 327 327 329 328 328 329 329 332 331 329 330 330 330 331 332 333 334 335 335 335 334 339
311 311 310 309 309 309 315 324 329 326 331 328 324 321 323 324 326 326 326 326 325 324 324 327 328 328 327 328 328 331 328 328 330 330 331 332 331 332 333 336 336 337 337 337
311 311 310 309 309 310 324 325 323 323 325 327 328 323 324 324 325 326 327 326 329 328 328 330 334 333 332 331 330 329 327 327 330 331 332 332 333 332 332 336 337 335 337 337
311 311 310 309 308 309 319 321 320 321 325 326 325 327 330 328 327 328 328 330 331 333 333 332 332 333 332 330 330 329 328 332 337 338 337 335 335 335 336 336 336 337 340 341
311 311 310 308 308 308 309 317 320 320 326 327 327 327 327 328 330 331 330 330 332 331 330 329 330 330 330 330 328 328 327 330 333 333 333 334 332 333 336 336 337 336 337 339
311 310 310 308 308 308 308 315 318 318 323 324 325 325 326 325 330 330 328 329 329 329 329 329 330 329 330 330 330 328 325 327 328 331 332 332 333 336 335 336 340 338 337 339
310 310 309 308 308 308 309 319 319 317 319 325 321 323 324 325 325 325 326 326 326 327 327 328 331 331 332 336 335 330 329 327 329 332 333 333 337 334 334 334 344 340 342 342
308 309 308 308 308 308 309 317 318 317 318 319 319 321 320 321 323 323 325 325 328 327 328 327 327 328 330 332 334 339 337 338 336 334 338 337 335 337 336 339 343 336 336 340
307 308 308 308 308 308 308 317 319 318 318 316 314 320 321 321 321 324 324 326 326 328 325 325 327 328 328 330 334 337 335 339 338 339 337 338 337 338 343 339 336 334 331 335
306 307 307 308 308 308 308 312 316 317 317 317 318 318 319 318 320 320 322 322 323 327 330 332 332 333 332 332 333 332 338 336 339 338 339 335 333 332 330 329 329 329 329 333
306 306 307 307 308 308 308 308 315 316 320 322 323 324 327 325 323 318 318 320 324 325 326 327 327 328 326 326 327 328 332 328 332 333 332 335 331 329 328 327 326 330 332 332
307 307 307 307 308 308 308 309 311 317 320 323 326 325 324 323 322 321 318 318 318 323 323 323 326 326 326 326 326 327 327 327 330 331 331 330 329 327 327 326 327 327 327 330
308 309 308 309 309 308 309 314 315 318 319 322 322 320 323 324 322 322 322 322 321 323 323 327 327 327 329 329 327 326 328 329 329 332 328 328 327 325 326 326 325 326 328 330
309 310 310 310 309 308 314 323 320 320 321 322 324 322 322 322 323 324 324 324 323 323 324 326 326 327 327 327 328 327 329 330 330 329 327 327 327 327 325 326 327 328 329 334
310 310 310 309 308 309 313 323 324 322 318 322 325 326 323 322 323 324 324 324 324 324 325 326 326 325 325 327 327 328 330 330 328 327 327 326 325 325 325 327 327 328 329 334
311 309 308 309 311 315 318 317 315 313 315 321 325 325 325 324 325 324 324 324 324 324 324 325 326 326 328 329 328 330 329 329 328 327 326 326 326 326 326 325 328 329 330 332
314 315 309 314 316 321 323 322 322 317 319 324 326 326 330 327 326 327 327 327 329 326 327 327 327 327 328 332 331 328 327 327 326 326 326 326 325 325 326 326 327 329 331 330
316 317 320 323 323 321 320 319 320 322 322 320 322 322 324 325 326 327 326 325 327 329 327 326 328 327 328 328 328 327 326 325 325 325 325 324 324 325 326 327 327 326 331 330
317 317 318 318 315 315 322 322 324 325 325 324 323 322 323 325 329 330 327 329 329 330 328 330 330 331 330 327 326 325 325 324 324 323 323 323 325 325 325 325 324 324 327 329
314 314 315 315 315 319 323 324 324 327 329 327 328 325 321 327 326 327 327 328 328 329 329 331 332 333 327 327 327 326 325 324 323 322 321 323 324 323 324 325 326 327 327 329
316 317 318 321 319 317 323 323 326 329 326 326 326 328 326 326 324 327 329 330 329 326 330 330 333 331 328 327 325 324 324 323 322 321 321 321 324 322 324 324 325 326 327 328
318 319 316 323 324 324 324 325 326 326 326 325 325 326 326 326 327 329 328 329 328 330 329 331 331 329 327 326 325 324 322 322 322 322 322 322 323 324 323 323 324 324 326 327
317 319 314 321 322 322 322 322 323 324 323 322 323 324 323 325 327 328 327 328 329 329 330 332 330 328 328 326 325 323 323 322 322 323 322 324 323 324 324 323 323 322 324 326
316 317 319 320 321 322 321 322 323 323 322 323 324 325 325 326 326 327 328 328 328 329 329 329 327 328 328 326 324 323 322 323 322 323 323 323 323 323 323 322 322 320 322 324
316 317 317 318 319 319 320 320 321 319 321 325 323 322 324 322 327 327 327 328 329 326 329 327 326 326 326 325 324 323 323 323 323 323 323 323 323 322 321 322 321 319 322 324

GFSNW_850_thetae_342.txt.gz
Theta_e
311 311 311 310 310 312 312 315 321 324 321 318 314 312 316 320 320 321 319 321 325 326 325 325 326 327 328 328 328 331 323 317 322 326 324 327 327 328 324 324 327 322 322 325
311 311 311 310 309 309 310 313 319 323 320 316 314 314 317 318 318 318 319 323 324 323 324 324 326 326 327 326 329 330 329 324 325 326 326 326 329 329 328 323 321 325 327 329
311 310 311 310 308 309 310 316 323 328 321 321 319 319 317 318 321 319 320 321 322 321 321 321 324 324 326 328 326 330 327 321 324 326 327 327 330 329 328 329 330 330 333 335
311 310 311 309 308 310 320 322 322 322 322 323 322 319 319 319 319 322 322 320 322 322 323 320 320 325 326 329 329 328 321 325 325 323 324 327 329 330 329 329 331 334 332 335
311 311 310 309 308 311 324 322 320 320 320 323 321 318 320 321 320 320 322 323 321 321 322 322 333 329 328 329 326 327 320 325 327 327 331 331 333 333 334 336 334 335 332 337
311 311 310 308 308 308 312 316 319 321 320 320 321 321 323 324 324 325 327 329 326 327 329 329 329 328 328 327 327 325 325 325 327 330 332 330 331 332 335 335 335 334 335 335
310 310 310 308 308 308 309 314 318 320 318 319 321 322 322 322 322 328 327 329 327 328 328 328 328 327 327 326 323 324 323 321 324 326 326 329 327 331 339 342 341 340 336 340
309 309 309 308 308 308 310 315 317 317 314 318 319 320 320 322 322 322 325 325 326 327 328 322 322 322 324 326 325 324 319 319 322 325 324 325 331 333 333 340 339 339 339 339
307 308 308 308 308 308 310 319 318 317 316 315 318 318 318 317 317 318 323 324 326 326 319 322 325 325 326 327 327 325 321 320 324 323 328 329 334 333 334 334 339 335 337 335
306 307 308 308 308 308 308 317 318 318 318 315 318 317 317 320 318 317 321 321 324 325 319 321 321 322 324 326 327 326 328 328 326 325 328 335 334 335 337 336 335 336 337 335
305 306 306 307 308 308 309 316 317 315 318 316 314 314 319 320 319 316 319 320 320 322 320 318 318 321 322 326 327 329 330 332 334 331 333 336 332 333 336 334 329 328 328 334
306 306 306 307 307 308 308 309 313 311 315 316 314 313 315 318 318 320 319 321 319 325 322 323 323 327 321 323 327 323 324 326 332 333 335 330 328 328 327 326 327 328 328 330
308 307 307 307 307 308 308 308 309 311 315 318 322 323 320 324 320 317 319 319 319 320 324 322 320 320 317 320 321 324 322 325 330 328 329 327 326 326 326 326 326 326 327 327
314 309 309 309 308 309 308 308 309 310 317 319 323 326 324 325 324 323 320 318 318 317 321 320 317 320 321 320 321 321 323 324 323 326 326 327 326 326 326 325 326 327 328 332
315 311 310 310 310 309 308 319 315 315 317 319 320 317 323 322 323 322 320 319 320 321 321 319 319 321 322 321 320 322 324 324 325 327 326 325 326 325 326 327 327 329 330 335
314 313 310 309 309 308 311 322 319 319 320 321 318 319 320 322 323 322 322 323 323 323 322 322 324 326 324 321 322 323 328 328 328 327 326 325 325 327 326 326 329 330 331 332
315 313 310 308 308 308 310 323 324 321 320 319 320 321 324 322 322 322 323 324 324 324 323 323 323 324 324 319 321 328 328 327 327 327 326 326 326 326 325 325 328 329 330 330
315 314 315 310 312 314 318 318 315 318 313 318 319 319 322 322 323 324 324 324 323 324 323 324 323 324 324 322 322 329 328 327 326 326 325 325 324 324 327 326 327 327 328 329
315 316 317 315 318 322 323 322 321 321 315 322 322 320 322 326 326 326 326 325 323 324 321 321 323 320 322 322 327 327 327 326 325 325 324 324 324 326 325 325 324 324 324 325
314 318 319 322 322 321 316 319 318 319 317 317 319 320 317 321 326 326 323 325 320 321 321 324 321 320 324 328 327 326 325 324 324 323 323 323 325 324 324 324 324 323 323 323
314 315 317 318 315 314 320 321 320 323 322 322 322 321 315 317 324 323 326 324 323 325 321 322 322 327 326 325 324 324 324 324 323 322 321 323 324 324 322 324 323 323 322 325
313 314 315 315 315 316 319 322 322 323 324 325 324 325 323 322 326 324 325 324 322 326 324 327 331 326 326 325 324 324 324 324 322 322 321 321 323 323 322 322 322 322 321 323
314 317 317 318 319 314 321 321 320 322 324 325 326 323 326 326 324 324 323 326 324 323 324 326 326 329 325 325 325 323 322 321 321 321 322 322 322 323 323 322 321 320 320 324
317 319 315 319 323 320 318 321 322 325 325 325 325 324 325 326 324 322 326 323 323 327 327 327 325 326 326 325 324 323 322 322 322 322 322 322 323 323 323 323 322 320 320 325
316 318 314 317 320 320 321 322 322 324 323 322 322 322 324 323 324 322 323 326 327 325 325 327 329 327 326 325 324 324 323 322 322 322 322 323 323 323 322 322 321 320 319 324
315 316 316 318 317 318 318 318 321 321 322 322 321 321 323 324 323 325 326 327 326 325 325 329 328 327 327 326 324 323 322 322 322 323 323 323 323 321 321 321 320 320 319 322
315 316 316 316 316 317 317 320 319 320 320 322 321 321 323 321 323 325 323 325 325 328 329 328 326 326 326 325 324 323 322 322 319 319 320 321 322 321 320 319 320 320 319 323

GFSNW_850_thetae_345.txt.gz
Theta_e
310 311 310 310 309 311 311 314 319 320 317 314 309 310 313 317 318 317 317 317 317 321 322 322 323 325 326 326 326 323 318 319 325 327 324 323 324 327 320 325 327 320 320 323
311 310 310 310 308 309 310 312 315 321 315 316 313 313 316 317 317 316 317 318 321 321 322 323 324 325 325 326 325 328 323 322 324 325 323 325 329 328 322 319 319 325 326 326
311 310 310 310 308 309 318 316 322 324 317 317 317 319 319 319 320 317 317 316 318 319 320 320 321 323 325 328 329 327 324 319 323 324 325 325 328 328 327 325 326 326 327 333
311 310 310 309 308 313 322 324 320 319 319 319 321 320 319 321 322 319 319 318 317 318 319 319 320 326 328 327 328 325 320 323 322 322 322 325 327 328 330 328 327 331 330 333
311 310 310 309 308 309 321 320 320 319 318 320 320 317 321 320 321 318 319 319 322 317 318 319 327 328 328 329 325 326 320 324 326 327 329 330 332 332 333 333 333 332 331 335
309 309 309 308 308 308 314 316 317 319 316 317 320 320 322 321 320 322 322 325 326 326 327 327 329 328 328 325 324 324 323 321 322 326 325 327 329 330 336 341 340 338 332 337
307 308 308 308 308 308 309 312 316 318 314 317 319 319 320 320 319 320 325 325 325 328 328 326 326 325 324 324 322 322 320 320 320 322 323 328 325 336 337 339 340 338 338 339
306 307 308 308 308 308 310 316 316 317 312 315 315 318 318 318 319 319 321 323 323 325 326 320 321 320 322 323 325 322 316 317 321 323 322 324 329 335 334 338 336 338 335 334
305 306 306 307 308 308 308 317 317 317 315 311 317 317 317 315 315 316 320 323 324 325 317 320 323 324 324 324 324 321 316 315 321 319 323 325 325 331 334 332 337 335 334 334
306 305 306 307 307 308 308 312 316 317 317 314 316 315 315 319 316 314 317 320 322 323 317 320 320 321 321 324 325 323 324 325 322 322 326 334 333 332 333 334 331 334 336 333
309 306 306 306 307 308 308 313 315 314 315 314 314 315 316 316 318 315 318 318 318 320 319 316 317 318 319 323 323 328 326 329 332 327 331 338 329 329 332 331 330 330 331 332
313 310 308 308 307 307 308 307 310 308 310 314 314 312 312 312 315 318 318 318 317 322 320 321 321 325 318 319 324 321 324 325 331 331 331 327 327 327 327 327 327 327 327 329
314 314 310 309 309 308 308 308 308 309 311 313 318 323 324 318 317 317 316 317 318 317 322 319 317 319 314 318 319 322 321 324 328 326 327 325 325 325 325 326 327 327 327 327
312 314 313 310 309 309 309 308 309 310 312 315 320 324 324 324 324 320 318 317 318 318 317 318 315 319 317 317 319 319 321 322 323 324 325 325 325 325 325 325 325 327 328 328
311 313 314 311 309 309 308 317 315 313 315 315 317 314 321 323 322 323 322 322 321 319 319 316 317 318 319 317 317 320 322 321 324 324 324 324 324 327 327 326 327 329 329 331
310 313 315 312 310 308 308 320 319 319 319 318 316 316 316 321 322 322 322 321 321 321 321 319 321 323 321 318 319 322 326 327 327 326 326 326 326 325 325 325 326 329 329 329
311 313 315 314 313 309 309 321 322 320 318 317 317 318 321 322 322 322 321 322 322 323 322 320 321 322 322 316 320 326 326 326 326 325 325 325 325 326 327 327 327 327 326 327
312 313 315 316 312 313 318 318 315 318 316 315 316 317 319 322 322 322 322 323 323 323 323 321 320 321 321 321 319 327 326 325 325 325 325 324 325 327 327 326 325 324 324 324
313 314 317 316 317 321 320 319 320 318 316 320 319 319 321 322 323 324 324 323 319 321 318 318 320 317 321 319 324 327 326 326 325 324 324 324 323 324 325 324 324 323 322 321
313 316 318 321 321 319 317 317 317 318 318 316 315 318 317 319 323 323 323 323 321 320 319 322 318 319 322 324 327 327 326 325 324 323 323 324 324 324 324 323 322 321 321 322
313 313 315 318 317 315 317 320 318 320 320 320 320 319 313 317 321 320 324 322 319 323 321 320 319 323 323 326 325 324 323 323 323 322 321 322 323 323 322 322 321 321 321 321
312 313 314 314 314 315 317 318 320 321 322 322 321 323 322 322 323 321 321 324 321 325 320 324 327 326 323 323 323 323 323 323 322 321 321 321 321 323 322 322 321 320 320 320
313 316 316 317 317 313 319 320 318 319 322 325 325 324 324 325 323 321 321 324 322 321 322 325 323 325 324 323 323 323 322 320 320 321 321 321 322 322 322 322 322 321 321 320
315 318 312 317 320 317 316 318 319 323 325 324 324 324 324 324 323 322 324 321 322 325 327 326 323 325 324 324 323 322 321 321 321 321 321 322 322 322 322 322 322 321 321 319
314 316 314 315 318 319 319 318 322 323 322 322 322 320 323 320 324 322 323 324 326 324 326 322 326 325 325 324 324 323 322 322 322 321 321 322 322 323 323 322 321 321 321 319
314 315 314 317 315 316 316 317 319 321 322 322 321 318 319 323 323 324 324 325 325 323 324 327 326 326 325 325 324 323 322 322 321 321 321 321 322 323 322 321 321 321 321 319
314 314 315 315 315 315 316 315 317 320 320 319 320 322 323 318 322 325 322 324 322 325 328 327 326 325 325 324 323 323 321 318 317 318 319 320 322 322 321 320 320 320 319 322